N8VIM Weather Reports


Display with metric or nautical units.
time (UTC)temp
F
wind
direction
speed
MPH
gust
MPH
rain 1hr
in
rain 24hr
in
rain mn
in
humidity
%
barometer
mb
20220121121532 6 0 0.0 0.0 36.96 0.00 0.00 71 1035.0
20220121121032 6 0 0.0 0.0 36.96 0.00 0.00 71 1034.9
20220121120532 6 0 0.0 0.0 36.96 0.00 0.00 71 1035.0
20220121120039 6 0 0.0 0.0 36.96 0.00 0.00 71 1034.7
20220121115532 6 0 0.0 0.0 36.96 0.00 0.00 70 1034.6
20220121115032 6 0 0.0 0.0 36.96 0.00 0.00 70 1034.5
20220121114533 6 0 0.0 0.0 36.96 0.00 0.00 71 1034.5
20220121114032 6 329 0.0 5.0 36.96 0.00 0.00 72 1034.4
20220121113532 6 280 2.0 6.0 36.96 0.00 0.00 70 1034.2
20220121113033 5 0 0.0 0.0 36.96 0.00 0.00 69 1033.9
20220121112532 6 271 0.0 6.0 36.96 0.00 0.00 69 1034.1
20220121112033 6 0 2.0 0.0 36.96 0.00 0.00 69 1033.9
20220121111532 6 0 0.0 0.0 36.96 0.00 0.00 70 1033.8
20220121111032 6 0 0.0 0.0 36.96 0.00 0.00 70 1033.9
20220121110532 6 0 0.0 0.0 36.96 0.00 0.00 70 1033.8
20220121110033 6 0 0.0 0.0 36.96 0.00 0.00 69 1033.6
20220121105532 6 325 0.0 5.0 36.96 0.00 0.00 70 1033.5
20220121105032 6 0 0.0 0.0 36.96 0.00 0.00 69 1033.5
20220121104532 6 0 0.0 0.0 36.96 0.00 0.00 68 1033.4
20220121104031 7 0 0.0 0.0 36.96 0.00 0.00 69 1033.1
20220121103532 7 0 0.0 0.0 36.96 0.00 0.00 68 1033.0
20220121103032 7 0 0.0 0.0 36.96 0.00 0.00 67 1032.9
20220121102531 7 0 0.0 0.0 36.96 0.00 0.00 68 1032.8
20220121102031 7 0 0.0 0.0 36.96 0.00 0.00 68 1032.8
20220121101532 7 290 0.0 6.0 36.96 0.00 0.00 69 1032.6
20220121101031 7 0 0.0 0.0 36.96 0.00 0.00 67 1032.5
20220121100531 7 0 0.0 0.0 36.96 0.00 0.00 67 1032.6
20220121100033 7 0 0.0 0.0 36.96 0.00 0.00 67 1032.6
20220121095532 7 0 0.0 0.0 36.96 0.00 0.00 67 1032.5
20220121095031 8 0 0.0 0.0 36.96 0.00 0.00 67 1032.6
20220121094532 8 0 0.0 0.0 36.96 0.00 0.00 66 1032.3
20220121094031 8 0 0.0 0.0 36.96 0.00 0.00 66 1032.4
20220121093532 8 335 0.0 3.0 36.96 0.00 0.00 65 1032.3
20220121093032 8 0 0.0 0.0 36.96 0.00 0.00 65 1032.2
20220121092531 8 0 0.0 0.0 36.96 0.00 0.00 64 1032.2
20220121092031 8 309 0.0 6.0 36.96 0.00 0.00 65 1032.1
20220121091532 8 0 0.0 0.0 36.96 0.00 0.00 64 1032.1
20220121091031 9 0 0.0 0.0 36.96 0.00 0.00 64 1032.2
20220121090531 9 0 0.0 0.0 36.96 0.00 0.00 64 1032.4
20220121090032 9 318 0.0 3.0 36.96 0.00 0.00 63 1032.3
20220121085531 9 0 1.0 0.0 36.96 0.00 0.00 63 1032.3
20220121085031 9 330 0.0 3.0 36.96 0.00 0.00 63 1032.2
20220121084532 9 0 0.0 0.0 36.96 0.00 0.00 61 1032.3
20220121084031 10 0 0.0 0.0 36.96 0.00 0.00 64 1032.3
20220121083531 10 0 0.0 0.0 36.96 0.00 0.00 64 1032.2
20220121083032 10 0 0.0 0.0 36.96 0.00 0.00 62 1032.0
20220121082531 10 0 0.0 0.0 36.96 0.00 0.00 61 1031.9
20220121082031 10 0 0.0 0.0 36.96 0.00 0.00 61 1031.9
20220121081532 10 0 0.0 0.0 36.96 0.00 0.00 61 1031.9
20220121081031 10 0 0.0 0.0 36.96 0.00 0.00 60 1031.7
20220121080531 10 288 0.0 6.0 36.96 0.00 0.00 60 1031.8
20220121080032 11 271 0.0 7.0 36.96 0.00 0.00 59 1032.2
20220121075531 11 0 2.0 0.0 36.96 0.00 0.00 58 1031.7
20220121075031 11 0 0.0 0.0 36.96 0.00 0.00 59 1031.5
20220121074532 11 6 0.0 10.0 36.96 0.00 0.00 59 1031.7
20220121074031 11 321 2.0 7.0 36.96 0.00 0.00 59 1031.6
20220121073531 11 314 2.0 8.0 36.96 0.00 0.00 58 1031.7
20220121073032 11 297 2.0 6.0 36.96 0.00 0.00 59 1031.6
20220121072531 12 308 3.0 9.0 36.96 0.00 0.00 58 1031.3
20220121072031 12 304 0.0 9.0 36.96 0.00 0.00 57 1031.7
20220121071532 12 263 2.0 11.0 36.96 0.00 0.00 56 1031.3
20220121071031 12 30 3.0 9.0 36.96 0.00 0.00 58 1031.4
20220121070531 12 340 0.0 7.0 36.96 0.00 0.00 57 1031.5
20220121070032 12 326 3.0 3.0 36.96 0.00 0.00 59 1031.5
20220121065531 12 0 0.0 0.0 36.96 0.00 0.00 60 1031.3
20220121065031 12 15 0.0 12.0 36.96 0.00 0.00 59 1031.4
20220121064532 13 325 2.0 10.0 36.96 0.00 0.00 60 1031.2
20220121064032 13 212 1.0 4.0 36.96 0.00 0.00 61 1031.3
20220121063531 13 0 0.0 0.0 36.96 0.00 0.00 62 1031.2
20220121063031 13 58 0.0 7.0 36.96 0.00 0.00 61 1031.1
20220121062531 13 3 1.0 6.0 36.96 0.00 0.00 61 1031.0
20220121062031 13 284 2.0 9.0 36.96 0.00 0.00 60 1031.0
20220121061531 13 0 2.0 0.0 36.96 0.00 0.00 62 1030.9
20220121061031 13 0 0.0 0.0 36.96 0.00 0.00 62 1030.9
20220121060533 13 278 0.0 7.0 36.96 0.00 0.00 63 1031.1
20220121060031 13 291 3.0 7.0 36.96 0.00 0.00 63 1030.9
20220121055531 14 308 0.0 6.0 36.96 0.00 0.00 63 1030.7
20220121055031 14 322 0.0 6.0 36.96 0.00 0.00 61 1030.6
20220121054531 14 330 0.0 6.0 36.96 0.00 0.00 62 1030.7
20220121054031 14 0 0.0 0.0 36.96 0.00 0.00 61 1030.5
20220121053531 14 309 0.0 7.0 36.96 0.00 0.00 61 1030.5
20220121053031 14 270 1.0 7.0 36.96 0.00 0.00 62 1030.7
20220121052531 15 308 0.0 7.0 36.96 0.00 0.00 61 1030.5
20220121052031 15 359 3.0 7.0 36.96 0.00 0.00 60 1030.4
20220121051531 15 0 0.0 0.0 36.96 0.00 0.00 61 1030.4
20220121051031 15 326 0.0 9.0 36.96 0.00 0.00 60 1030.3
20220121050531 15 4 1.0 7.0 36.96 0.00 0.00 61 1030.3
20220121050031 15 314 0.0 6.0 36.96 0.00 0.00 61 1030.4
20220121045531 15 318 0.0 7.0 36.96 0.00 0.01 61 1030.1
20220121045031 16 0 0.0 0.0 36.96 0.00 0.01 60 1030.1
20220121044531 16 356 0.0 7.0 36.96 0.00 0.01 60 1030.1
20220121044031 16 0 0.0 0.0 36.96 0.00 0.01 60 1030.4
20220121043531 16 345 0.0 5.0 36.96 0.00 0.01 59 1030.2
20220121043031 16 0 0.0 0.0 36.96 0.00 0.01 59 1030.1
20220121042531 16 248 0.0 4.0 36.96 0.00 0.01 60 1030.1
20220121042031 16 309 0.0 10.0 36.96 0.00 0.01 58 1029.9
20220121041531 16 0 0.0 0.0 36.96 0.00 0.01 58 1030.2
20220121041031 17 350 0.0 7.0 36.96 0.00 0.01 59 1030.0
20220121040531 17 318 1.0 11.0 36.96 0.00 0.01 57 1029.9
20220121040031 17 328 3.0 6.0 36.96 0.00 0.01 56 1030.1
20220121035531 17 345 1.0 7.0 36.96 0.00 0.01 57 1030.0
20220121035031 17 350 0.0 8.0 36.96 0.00 0.01 57 1030.1
20220121034531 17 10 0.0 9.0 36.96 0.00 0.01 57 1029.8
20220121034030 18 287 0.0 9.0 36.96 0.00 0.01 56 1029.9
20220121033530 18 345 0.0 6.0 36.96 0.00 0.01 58 1029.8
20220121033031 18 270 0.0 5.0 36.96 0.00 0.01 57 1029.8
20220121032531 18 4 0.0 8.0 36.96 0.00 0.01 58 1029.5
20220121032031 18 0 0.0 0.0 36.96 0.00 0.01 57 1029.5
20220121031531 18 309 0.0 7.0 36.96 0.00 0.01 57 1029.6
20220121031031 19 329 3.0 6.0 36.96 0.00 0.01 56 1029.4
20220121030530 19 354 0.0 5.0 36.96 0.00 0.01 58 1029.5
20220121030031 19 280 0.0 6.0 36.96 0.00 0.01 56 1029.4
20220121025530 19 27 3.0 9.0 36.96 0.00 0.01 56 1029.3
20220121025030 19 17 0.0 6.0 36.96 0.00 0.01 55 1029.3
20220121024531 19 8 0.0 7.0 36.96 0.00 0.01 57 1029.0
20220121024031 19 226 1.0 10.0 36.96 0.00 0.01 58 1029.1
20220121023530 19 293 3.0 6.0 36.96 0.00 0.01 54 1029.0
20220121023031 20 346 0.0 8.0 36.96 0.00 0.01 54 1028.7
20220121022530 20 322 4.0 14.0 36.96 0.00 0.01 54 1028.7
20220121022030 20 263 6.0 8.0 36.96 0.00 0.01 54 1028.6
20220121021531 21 359 0.0 6.0 36.96 0.00 0.01 56 1028.5
20220121021030 21 0 0.0 0.0 36.96 0.00 0.01 57 1028.4
20220121020530 21 6 0.0 9.0 36.96 0.00 0.01 57 1028.3
20220121020031 21 312 2.0 6.0 36.96 0.00 0.01 57 1028.1
20220121015530 21 283 2.0 9.0 36.96 0.00 0.01 55 1028.0
20220121015030 21 304 0.0 8.0 36.96 0.00 0.01 55 1028.0
20220121014531 22 294 4.0 8.0 36.96 0.00 0.01 54 1028.0
20220121014031 22 332 4.0 10.0 36.96 0.00 0.01 53 1027.9
20220121013530 22 330 0.0 9.0 36.96 0.00 0.01 56 1027.8
20220121013031 23 298 0.0 6.0 36.96 0.00 0.01 55 1027.9
20220121012530 23 0 0.0 0.0 36.96 0.00 0.01 58 1027.7
20220121012030 23 308 0.0 7.0 36.96 0.00 0.01 57 1027.5
20220121011532 23 304 3.0 8.0 36.96 0.00 0.01 55 1027.4
20220121011030 23 359 0.0 7.0 36.96 0.00 0.01 56 1027.4
20220121010530 23 307 5.0 10.0 36.96 0.00 0.01 54 1027.2
20220121010031 24 297 0.0 8.0 36.96 0.00 0.01 58 1027.1
20220121005530 24 332 1.0 5.0 36.96 0.00 0.01 58 1027.0
20220121005030 24 65 1.0 6.0 36.96 0.00 0.01 56 1026.9
20220121004531 24 6 0.0 6.0 36.96 0.00 0.01 57 1026.8
20220121004030 24 49 0.0 4.0 36.96 0.00 0.01 56 1026.7
20220121003530 24 3 0.0 5.0 36.96 0.00 0.01 57 1026.5
20220121003031 25 323 0.0 7.0 36.96 0.00 0.01 56 1026.6
20220121002530 25 302 0.0 5.0 36.96 0.00 0.01 58 1026.4
20220121002030 25 285 0.0 6.0 36.96 0.00 0.01 58 1026.2
20220121001531 25 314 1.0 7.0 36.96 0.00 0.01 59 1026.2
20220121001030 26 0 0.0 0.0 36.96 0.00 0.01 59 1026.1
20220121000530 26 298 0.0 4.0 36.96 0.00 0.01 58 1026.1
20220121000031 26 0 0.0 0.0 36.96 0.00 0.01 59 1026.1
20220120235530 26 0 0.0 0.0 36.96 0.00 0.01 57 1025.8
20220120235030 27 20 0.0 5.0 36.96 0.00 0.01 57 1025.8
20220120234531 27 0 0.0 0.0 36.96 0.00 0.01 59 1025.6
20220120234030 27 297 0.0 7.0 36.96 0.00 0.01 57 1025.5
20220120233530 27 332 1.0 9.0 36.96 0.00 0.01 56 1025.4
20220120233031 27 326 0.0 9.0 36.96 0.00 0.01 55 1025.3
20220120232530 27 281 0.0 7.0 36.96 0.00 0.01 56 1025.0
20220120232030 27 349 0.0 9.0 36.96 0.00 0.01 55 1024.9
20220120231531 28 291 2.0 12.0 36.96 0.00 0.01 55 1025.0
20220120231030 28 270 2.0 9.0 36.96 0.00 0.01 57 1024.8
20220120230530 28 290 1.0 11.0 36.96 0.00 0.01 55 1024.7
20220120230031 28 309 2.0 11.0 36.96 0.00 0.01 55 1024.7
20220120225530 28 266 4.0 7.0 36.96 0.00 0.01 54 1024.6
20220120225030 28 287 2.0 11.0 36.96 0.00 0.01 54 1024.5
20220120224531 28 305 1.0 10.0 36.96 0.00 0.01 53 1024.4
20220120224030 28 335 2.0 5.0 36.96 0.00 0.01 54 1024.3
20220120223530 28 329 0.0 6.0 36.96 0.00 0.01 54 1024.2
20220120223030 28 312 0.0 9.0 36.96 0.00 0.01 53 1024.1
20220120222530 29 333 3.0 8.0 36.96 0.00 0.01 53 1024.1
20220120222030 29 273 4.0 7.0 36.96 0.00 0.01 53 1024.0
20220120221531 29 276 2.0 12.0 36.96 0.00 0.01 52 1023.8
20220120221030 29 278 7.0 7.0 36.96 0.00 0.01 50 1023.9
20220120220530 29 283 0.0 7.0 36.96 0.00 0.01 51 1024.0
20220120220030 29 307 4.0 5.0 36.96 0.00 0.01 50 1023.8
20220120215530 29 307 3.0 6.0 36.96 0.00 0.01 49 1023.7
20220120215030 29 271 3.0 10.0 36.96 0.00 0.01 49 1023.5
20220120214530 30 284 4.0 12.0 36.96 0.00 0.01 47 1023.4
20220120214030 30 323 0.0 9.0 36.96 0.00 0.01 47 1023.3
20220120213030 30 328 0.0 12.0 36.96 0.00 0.01 48 1023.3
20220120212530 30 316 0.0 10.0 36.96 0.00 0.01 47 1023.1
20220120212030 30 278 3.0 10.0 36.96 0.00 0.01 45 1023.0
20220120211530 31 284 3.0 8.0 36.96 0.00 0.01 45 1022.9
20220120211030 32 25 0.0 6.0 36.96 0.00 0.01 45 1022.9
20220120210530 31 301 2.0 8.0 36.96 0.00 0.01 45 1022.6
20220120210030 31 257 1.0 6.0 36.96 0.00 0.01 47 1022.7
20220120205530 31 319 3.0 5.0 36.96 0.00 0.01 45 1022.5
20220120205030 32 301 0.0 3.0 36.96 0.00 0.01 47 1022.5
20220120204532 32 271 0.0 7.0 36.96 0.00 0.01 47 1022.5
20220120204030 32 3 1.0 7.0 36.96 0.00 0.01 46 1022.4
20220120203530 32 0 2.0 0.0 36.96 0.00 0.01 46 1022.2
20220120203030 32 4 0.0 7.0 36.96 0.00 0.01 45 1022.0
20220120202530 32 14 2.0 12.0 36.96 0.00 0.01 46 1021.8
20220120202031 33 322 1.0 13.0 36.96 0.00 0.01 47 1021.7
20220120201530 33 8 6.0 9.0 36.96 0.00 0.01 43 1021.6
20220120201031 33 328 4.0 9.0 36.96 0.00 0.01 46 1021.4
20220120200530 33 325 0.0 4.0 36.96 0.00 0.01 47 1021.3
20220120200030 33 308 1.0 10.0 36.96 0.00 0.01 48 1021.1
20220120195530 33 339 5.0 8.0 36.96 0.00 0.01 48 1021.0
20220120195030 34 305 3.0 12.0 36.96 0.00 0.01 46 1021.0
20220120194530 34 290 0.0 12.0 36.96 0.00 0.01 51 1020.8
20220120193529 34 277 5.0 16.0 36.96 0.00 0.01 49 1020.7
20220120193030 34 274 5.0 11.0 36.96 0.00 0.01 48 1020.7
20220120192530 34 298 0.0 7.0 36.96 0.00 0.01 50 1020.6
20220120192030 34 31 5.0 10.0 36.96 0.00 0.01 48 1020.6
20220120191530 34 318 1.0 13.0 36.96 0.00 0.01 48 1020.5
20220120191029 35 278 9.0 11.0 36.96 0.00 0.01 46 1020.5
20220120190530 35 326 4.0 15.0 36.96 0.00 0.01 46 1020.4
20220120190030 35 14 0.0 7.0 36.96 0.00 0.01 50 1020.2
20220120185529 35 269 0.0 10.0 36.96 0.00 0.01 49 1020.3
20220120185029 35 246 1.0 10.0 36.96 0.00 0.01 48 1020.3
20220120184530 35 273 0.0 16.0 36.96 0.00 0.01 49 1020.2
20220120184029 35 283 9.0 11.0 36.96 0.00 0.01 44 1020.1
20220120183529 36 316 0.0 14.0 36.96 0.00 0.01 48 1020.1
20220120183030 36 297 7.0 15.0 36.96 0.00 0.01 44 1020.0
20220120182529 37 307 4.0 11.0 36.96 0.00 0.01 45 1020.0
20220120182029 37 278 0.0 7.0 36.96 0.00 0.01 51 1019.9
20220120181530 37 291 0.0 14.0 36.96 0.00 0.01 50 1019.8
20220120181031 37 273 4.0 10.0 36.96 0.00 0.01 53 1020.1
20220120180531 37 333 1.0 7.0 36.96 0.00 0.01 53 1019.9
20220120180030 37 7 1.0 8.0 36.96 0.00 0.01 56 1019.9
20220120175529 36 300 2.0 10.0 36.96 0.00 0.01 57 1019.8
20220120175029 36 293 6.0 13.0 36.96 0.00 0.01 55 1019.8
20220120174530 35 270 4.0 6.0 36.96 0.00 0.01 56 1019.7
20220120174031 35 336 2.0 9.0 36.96 0.00 0.01 56 1019.7
20220120173530 35 328 6.0 9.0 36.96 0.00 0.01 57 1019.7
20220120173030 35 305 4.0 6.0 36.96 0.00 0.01 59 1019.7
20220120172529 35 1 0.0 5.0 36.96 0.00 0.01 60 1019.8
20220120172029 35 266 1.0 7.0 36.96 0.00 0.01 61 1019.8
20220120171530 35 314 4.0 7.0 36.96 0.00 0.01 59 1019.8
20220120171030 35 305 3.0 9.0 36.96 0.00 0.01 60 1019.6
20220120170529 35 256 4.0 12.0 36.96 0.00 0.01 62 1019.5
20220120170030 35 297 2.0 9.0 36.96 0.00 0.01 62 1019.5
20220120165529 35 267 5.0 10.0 36.96 0.00 0.01 60 1019.4
20220120165029 35 288 0.0 8.0 36.96 0.00 0.01 64 1019.5
20220120164533 35 284 5.0 11.0 36.96 0.00 0.01 61 1019.6
20220120164030 35 274 1.0 7.0 36.96 0.00 0.01 64 1019.6
20220120163529 35 295 4.0 12.0 36.96 0.00 0.01 62 1019.6
20220120163030 35 270 0.0 11.0 36.96 0.00 0.01 63 1019.6
20220120162529 35 290 0.0 10.0 36.96 0.00 0.01 65 1019.4
20220120162029 35 284 6.0 8.0 36.96 0.00 0.01 63 1019.3
20220120161530 35 298 0.0 7.0 36.96 0.00 0.01 66 1019.4
20220120161032 35 281 4.0 8.0 36.96 0.00 0.01 64 1019.5
20220120160529 35 328 3.0 9.0 36.96 0.00 0.01 62 1019.6
20220120160030 35 307 4.0 8.0 36.96 0.00 0.01 65 1019.7
20220120155529 35 353 3.0 6.0 36.96 0.00 0.01 66 1019.6
20220120155029 36 325 3.0 9.0 36.96 0.00 0.01 65 1019.6
20220120154530 36 283 3.0 10.0 36.96 0.00 0.01 68 1019.5
20220120154029 35 329 4.0 6.0 36.96 0.00 0.01 67 1019.5
20220120153530 36 328 1.0 7.0 36.96 0.00 0.01 72 1019.5
20220120153030 35 253 2.0 4.0 36.96 0.00 0.01 75 1019.6
20220120152529 35 301 0.0 3.0 36.96 0.00 0.01 77 1019.7
20220120152032 35 304 1.0 4.0 36.96 0.00 0.01 79 1019.6
20220120151532 35 297 2.0 6.0 36.96 0.00 0.01 79 1019.6
20220120151029 35 293 1.0 6.0 36.96 0.00 0.01 80 1019.5
20220120150529 35 283 0.0 4.0 36.96 0.00 0.01 81 1019.4
20220120150030 35 308 2.0 6.0 36.96 0.00 0.01 83 1019.4
20220120145529 35 285 4.0 4.0 36.96 0.00 0.01 85 1019.4
20220120145029 35 285 0.0 4.0 36.96 0.00 0.01 89 1019.3
20220120144530 34 304 1.0 4.0 36.96 0.00 0.01 89 1019.2
20220120144030 34 285 1.0 5.0 36.96 0.00 0.01 92 1019.2
20220120143529 34 0 0.0 0.0 36.96 0.00 0.01 96 1019.1
20220120143030 34 0 0.0 0.0 36.96 0.00 0.01 96 1019.0
20220120142029 34 262 0.0 5.0 36.96 0.00 0.01 96 1018.8
20220120141529 34 0 1.0 0.0 36.96 0.00 0.01 97 1018.6
20220120141029 34 0 0.0 0.0 36.96 0.00 0.01 97 1018.5
20220120140529 34 0 0.0 0.0 36.96 0.00 0.01 97 1018.5
20220120140029 34 0 0.0 0.0 36.96 0.00 0.01 97 1018.2
20220120135529 34 0 0.0 0.0 36.96 0.00 0.01 97 1018.0
20220120135029 34 0 0.0 0.0 36.96 0.00 0.01 97 1018.0
20220120134534 34 0 0.0 0.0 36.96 0.00 0.01 97 1018.0
20220120134029 34 0 0.0 0.0 36.96 0.00 0.01 97 1017.8
20220120133529 34 0 0.0 0.0 36.96 0.00 0.01 97 1017.7
20220120133029 34 0 0.0 0.0 36.96 0.00 0.01 97 1017.7
20220120132529 34 0 0.0 0.0 36.96 0.00 0.01 97 1017.8
20220120132030 34 0 0.0 0.0 36.96 0.00 0.01 97 1017.7
20220120131529 34 0 0.0 0.0 36.96 0.00 0.01 97 1017.7
20220120131029 34 0 0.0 0.0 36.96 0.00 0.01 97 1017.6
20220120130529 34 0 0.0 0.0 36.96 0.00 0.01 97 1017.5
20220120130029 34 0 0.0 0.0 36.96 0.00 0.01 97 1017.5
20220120125529 34 0 0.0 0.0 36.96 0.00 0.01 97 1017.2
20220120125029 34 0 0.0 0.0 36.96 0.00 0.01 97 1017.1
20220120124529 34 0 0.0 0.0 36.96 0.00 0.01 97 1017.0
20220120124029 34 0 0.0 0.0 36.96 0.00 0.01 97 1016.8
20220120123529 34 0 0.0 0.0 36.96 0.00 0.01 97 1016.7
20220120123029 34 0 0.0 0.0 36.96 0.00 0.01 97 1016.6
20220120122529 34 0 0.0 0.0 36.96 0.00 0.01 97 1016.5
20220120122029 34 0 0.0 0.0 36.96 0.00 0.01 97 1016.5